DateTimeUTC,F1_A11,F1_S11,BsB_S11,BsG_S11,BsR_S11,BbsB_S11,BbsG_S11,BbsR_S11,BaB_A11,BaG_A11,BaR_A11,Tu_S11,T_S11,Uu_S11,U_S11,P_S11,T1_A11
2021-08-30T06:00:00Z,00000200,21000000,,,,,,,0000.11,0000.08,-000.10,18.1,25.2,00.9,00.6,0668.6,30.9
2021-08-30T06:01:00Z,00000200,21000000,,,,,,,0000.56,0000.22,0000.31,18.1,25.2,00.9,00.6,0668.6,31.0
2021-08-30T06:02:00Z,00000200,21000000,,,,,,,0000.30,0000.28,0000.29,18.2,25.3,00.9,00.6,0668.6,31.0
2021-08-30T06:03:00Z,00000200,61000000,,,,,,,-000.13,0000.27,0000.20,18.2,25.3,00.9,00.6,0668.6,31.0
2021-08-30T06:04:00Z,00000200,41000000,0000.11,0000.47,0000.47,0000.07,-000.09,0000.14,0000.20,0000.17,0000.10,18.7,25.3,01.1,00.7,0669.6,31.0
2021-08-30T06:05:00Z,00000200,01000000,0000.68,0000.18,0000.28,0000.66,0000.05,0000.04,0000.08,-000.02,-000.19,18.8,25.3,01.1,00.7,0669.6,31.0
2021-08-30T06:06:00Z,00000200,01000000,0000.61,0000.31,0000.26,0000.07,0000.26,-000.22,0000.12,0000.27,-000.15,18.9,25.3,01.1,00.7,0669.7,31.0
2021-08-30T06:07:00Z,00000200,01000000,0000.41,0000.56,0000.23,0000.76,0000.07,0000.01,0000.26,0000.32,0000.75,18.8,25.2,01.1,00.8,0669.7,31.0
2021-08-30T06:08:00Z,00000200,01000000,0000.04,0000.60,0000.15,0000.33,0000.03,0000.15,-000.12,0000.03,-000.17,18.8,25.2,01.1,00.8,0669.7,31.0
2021-08-30T06:09:00Z,00000200,01000000,0000.10,0000.84,-000.09,0000.23,0000.36,0000.03,-000.04,0000.12,0000.06,18.7,25.2,01.2,00.8,0669.7,31.0
2021-08-30T06:10:00Z,00000200,01000000,0000.16,0000.41,0000.20,-000.17,-000.11,0000.09,0000.07,-000.46,-000.14,18.6,25.2,01.2,00.8,0669.7,31.0
2021-08-30T06:11:00Z,00000200,01000000,0000.28,0000.03,0000.25,-000.01,0000.23,0000.08,-000.04,-000.09,-000.14,18.6,25.1,01.3,00.8,0669.7,30.9
2021-08-30T06:12:00Z,00000200,01000000,0000.54,0000.75,0000.01,0000.02,-000.08,-000.02,0000.24,0000.02,0000.30,18.5,25.1,01.1,00.7,0669.7,30.9
2021-08-30T06:13:00Z,00000200,01000000,0000.95,0000.72,0000.14,0000.06,0000.07,-000.19,-000.19,0000.10,-000.15,18.5,25.1,01.1,00.7,0669.7,30.9
2021-08-30T06:14:00Z,00000200,01000000,-000.22,0000.38,0000.20,0000.85,0000.04,0000.25,0000.03,0000.20,-000.12,18.5,25.0,01.1,00.7,0669.7,30.9
2021-08-30T06:15:00Z,00000200,01000000,-000.15,0000.50,-000.09,0000.35,0000.07,-000.06,0000.49,0000.00,0000.41,18.5,25.0,01.1,00.8,0669.7,30.9
2021-08-30T06:16:00Z,00000200,01000000,0000.57,0000.31,0000.11,-000.52,0000.24,0000.06,0000.33,-000.18,-000.27,18.6,25.1,01.2,00.8,0669.7,30.9
2021-08-30T06:17:00Z,00000200,01000000,0000.16,0000.77,-000.00,-000.03,0000.21,-000.07,-000.16,0000.73,0000.26,18.7,25.1,01.1,00.8,0669.7,31.0
2021-08-30T06:18:00Z,00000200,01000000,0000.22,0000.16,0000.13,-000.55,0000.04,-000.01,-000.24,-000.10,0000.15,18.8,25.2,01.1,00.8,0669.7,31.0
2021-08-30T06:19:00Z,00000200,01000000,-000.59,0000.46,0000.26,0000.44,0000.19,-000.26,0000.55,0000.02,0000.39,18.9,25.2,01.2,00.8,0669.7,31.0
2021-08-30T06:20:00Z,00000200,01000000,-000.40,0000.42,0000.23,0000.05,0000.22,0000.18,0000.11,-000.14,0000.28,18.9,25.2,01.2,00.8,0669.8,31.0
2021-08-30T06:21:00Z,00000200,01000000,0000.13,0000.25,0000.28,0000.10,0000.27,-000.18,0000.18,0000.97,-000.30,18.9,25.2,01.1,00.8,0669.8,31.0
2021-08-30T06:22:00Z,00000200,01000000,0000.63,0000.57,0000.32,0000.84,-000.01,-000.05,0000.08,-000.27,0000.01,18.8,25.2,01.3,00.9,0669.8,31.0
2021-08-30T06:23:00Z,00000200,01000000,0000.17,0000.66,0000.01,0000.16,-000.02,0000.06,-000.06,0000.22,0000.27,18.8,25.2,01.2,00.8,0669.8,31.0
2021-08-30T06:24:00Z,00000200,01000000,0000.85,0000.17,0000.29,0000.15,0000.06,0000.09,0000.44,0000.23,0000.09,18.7,25.1,01.3,00.9,0669.8,30.9
2021-08-30T06:25:00Z,00000200,01000000,0000.07,0000.56,-000.35,0000.79,0000.07,-000.15,-000.15,0000.00,0000.06,18.6,25.1,01.3,00.9,0669.8,30.9
2021-08-30T06:26:00Z,00000200,01000000,0000.96,0000.35,-000.18,0000.51,0000.33,-000.24,0000.21,-000.10,-000.02,18.6,25.1,01.3,00.8,0669.8,30.9
2021-08-30T06:27:00Z,00000200,01000000,-000.13,0000.51,0000.13,0000.64,-000.01,-000.01,-000.17,0000.16,0000.29,18.5,25.1,01.4,00.9,0669.8,30.9
2021-08-30T06:28:00Z,00000200,01000000,-000.08,0000.13,0000.39,0000.34,0000.28,0000.13,0000.26,-000.04,-000.21,18.5,25.0,01.4,00.9,0669.8,30.9
2021-08-30T06:29:00Z,00000200,01000000,0000.33,0000.14,-000.05,-000.08,0000.29,0000.24,-000.02,0000.12,0000.19,18.5,25.0,01.4,00.9,0669.8,30.9
2021-08-30T06:30:00Z,00000200,01000000,0000.56,0000.38,0000.27,0000.16,0000.02,0000.02,0000.25,0000.31,0000.07,18.5,25.0,01.4,00.9,0669.8,30.9
2021-08-30T06:31:00Z,00000200,01000000,-000.26,0000.36,-000.08,0000.22,0000.07,0000.13,0000.37,0000.17,0000.27,18.6,25.0,01.3,00.9,0669.8,30.9
2021-08-30T06:32:00Z,00000200,01000000,0000.65,0000.13,0000.10,-000.20,0000.43,-000.21,0000.11,-000.01,0000.15,18.7,25.1,01.3,00.9,0669.8,31.0
2021-08-30T06:33:00Z,00000200,01000000,0000.22,0000.33,0000.19,0000.68,0000.27,-000.02,0000.13,0000.11,-000.08,18.9,25.1,01.3,00.9,0669.8,31.0
2021-08-30T06:34:00Z,00000200,01000000,0000.33,0000.42,0000.19,-000.45,0000.41,0000.07,0000.13,-000.05,-000.09,19.0,25.2,01.3,00.9,0669.8,31.0
2021-08-30T06:35:00Z,00000200,01000000,0000.68,0000.41,0000.18,0000.59,0000.13,-000.02,0000.07,0000.31,0000.36,19.0,25.3,01.3,00.9,0669.8,31.0
2021-08-30T06:36:00Z,00000200,01000000,0000.40,0000.41,-000.04,-000.11,0000.37,-000.36,-000.28,0000.33,-000.18,19.0,25.3,01.3,00.9,0669.9,31.0
2021-08-30T06:37:00Z,00000200,01000000,-000.63,0000.30,-000.16,0000.02,0000.20,-000.37,0000.40,-000.29,-000.04,19.0,25.3,01.3,00.9,0669.9,31.0
2021-08-30T06:38:00Z,00000200,01000000,0000.33,0000.44,-000.11,-000.00,0000.19,-000.05,-000.40,-000.02,0000.31,18.9,25.2,01.4,00.9,0669.9,31.0
2021-08-30T06:39:00Z,00000200,01000000,0000.33,0000.13,0000.15,0000.27,0000.26,0000.13,0000.35,0000.03,-000.10,18.8,25.2,01.3,00.9,0669.9,31.0
2021-08-30T06:40:00Z,00000200,01000000,0000.10,0000.65,-000.03,-000.18,0000.24,0000.13,0000.03,0000.19,0000.21,18.8,25.2,01.3,00.9,0669.9,31.0
2021-08-30T06:41:00Z,00000200,01000000,0000.69,0000.36,0000.17,0000.85,0000.28,0000.22,0000.43,0000.20,0000.06,18.7,25.1,01.4,00.9,0669.9,31.0
2021-08-30T06:42:00Z,00000200,01000000,0000.29,0000.48,-000.04,0000.77,0000.06,-000.18,-000.26,-000.11,-000.19,18.7,25.1,01.3,00.9,0669.9,30.9
2021-08-30T06:43:00Z,00000200,01000000,-000.04,0000.12,-000.27,0000.57,0000.02,-000.22,0000.04,-000.14,0000.28,18.6,25.1,01.5,01.0,0669.9,30.9
2021-08-30T06:44:00Z,00000200,01000000,0000.18,0000.37,-000.19,0000.45,0000.05,-000.49,0000.67,0000.43,-000.23,18.6,25.1,01.4,00.9,0669.9,30.9
2021-08-30T06:45:00Z,00000200,01000000,0000.44,0000.61,0000.17,0000.23,0000.09,0000.14,0000.54,0000.48,0001.10,18.6,25.1,01.4,00.9,0669.9,30.9
2021-08-30T06:46:00Z,00000200,01000000,0000.49,0000.83,-000.23,-000.08,-000.15,0000.11,0000.68,0000.76,0000.09,18.7,25.1,01.3,00.9,0669.9,31.0
2021-08-30T06:47:00Z,00000200,01000000,0000.17,0000.59,0000.05,-000.34,0000.08,0000.04,0000.70,0001.06,0000.54,18.8,25.2,01.4,00.9,0669.9,31.0
2021-08-30T06:48:00Z,00000200,01000000,-000.38,0000.52,-000.16,-000.61,0000.48,-000.17,0001.30,0000.71,0001.46,18.9,25.2,01.4,00.9,0669.9,31.0
2021-08-30T06:49:00Z,00000200,01000000,0000.22,0000.28,0000.16,0000.57,0000.20,-000.00,0004.89,0004.59,0002.84,18.9,25.2,01.4,00.9,0669.9,31.0
2021-08-30T06:50:00Z,00000200,01000000,0000.09,0000.56,0000.31,0000.05,0000.21,0000.18,0003.96,0003.31,0002.84,18.8,25.2,01.3,00.9,0669.9,31.0
2021-08-30T06:51:00Z,00000200,01000000,0000.27,0000.67,0000.39,-000.06,0000.24,0000.16,0009.21,0008.56,0006.30,18.8,25.2,01.4,00.9,0669.9,31.0
2021-08-30T06:52:00Z,00000200,01000000,0000.53,0000.96,0000.20,0000.23,0000.34,0000.04,0010.67,0009.68,0007.50,18.7,25.1,01.4,00.9,0669.9,31.0
2021-08-30T06:53:00Z,00000200,01000000,0000.34,0000.30,0000.11,0000.37,0000.14,-000.10,0004.55,0004.14,0003.53,18.7,25.1,01.4,00.9,0669.9,31.0
2021-08-30T06:54:00Z,00000200,01000000,0000.68,0000.64,-000.09,0000.11,0000.18,-000.12,0003.48,0003.11,0002.09,18.6,25.1,01.4,00.9,0669.9,30.9
2021-08-30T06:55:00Z,00000200,01000000,0001.14,0000.43,0000.03,0000.28,0000.22,0000.05,0004.62,0004.39,0003.22,18.6,25.1,01.4,00.9,0669.9,30.9
2021-08-30T06:56:00Z,00000200,01000000,0000.57,0000.56,0000.32,-000.01,0000.34,0000.04,0001.87,0001.52,0001.08,18.5,25.0,01.4,01.0,0669.9,30.9
2021-08-30T06:57:00Z,00000200,40000000,,,,,,,0000.22,0000.16,0000.63,18.6,25.1,01.9,01.3,0670.0,30.9
2021-08-30T06:58:00Z,00000200,61000000,,,,,,,0000.15,0000.16,0000.05,18.2,25.1,01.2,00.8,0669.0,30.9
2021-08-30T06:59:00Z,00000200,21000000,,,,,,,0000.10,-000.17,-000.21,18.1,25.2,01.2,00.8,0668.9,30.9
